Weather Roundup
Issued by NWS

Home | Current Version | Previous Version | Text Only | Print | Product List | Glossary On
Versions: 1 2 3 4 5 6 7 8 9 10 11 12 13 14 15 16 17 18 19 20 21 22 23 24 25 26 27 28 29 30 31 32 33 34 35 36 37 38 39 40 41 42 43 44 45 46 47 48 49 50
000
NZUS93 KARX 212110
HRRWXR

CURRENT HOURLY OBSERVATIONS ACROSS
MUCH OF THE UPPER MISSISSIPPI VALLEY
NATIONAL WEATHER SERVICE LA CROSSE WI
400 PM CDT SUN MAY 21 2017


...SOUTHEAST MINNESOTA...


CITY           SKY/WX    TMP DP  RH WIND       PRES   REMARKS
ROCHESTER      CLOUDY    45  42  89 W22G30    29.91R
ROCHESTER/MAYO CLOUDY    46  41  84 W18G29    29.90R
WINONA         CLOUDY    50  41  71 W10G20    29.89R
AUSTIN         CLOUDY    46  39  76 W18G25    29.93R
ALBERT LEA     CLOUDY    46  43  87 W10G18    29.94R
DODGE CENTER   CLOUDY    45  41  87 W17G25    29.90R
PRESTON        CLOUDY    46  40  80 W21       29.92S
OWATONNA       CLOUDY    45  43  93 W21       29.92R
FARIBAULT      CLOUDY    46  43  87 W15G25    29.90R
$$

...ELSEWHERE IN MINNESOTA...


CITY           SKY/WX    TMP DP  RH WIND       PRES   REMARKS
MINNEAPOLIS    DRIZZLE   49  43  80 W14       29.85R
INTNL FALLS    CLOUDY    48  43  82 NW6       29.79S
DULUTH         CLOUDY    49  45  86 VRB3      29.76F
RED WING       CLOUDY    48  43  81 W16G22    29.85R
REDWOOD FALLS  CLOUDY    48  38  68 NW18      29.94R
MANKATO        CLOUDY    45  40  82 W16       29.93R
WORTHINGTON    CLOUDY    49  40  71 W21G33    29.98S
FAIRMONT       CLOUDY    48  41  76 NW17G25   29.96S
$$

...SOUTHWEST WISCONSIN...


CITY           SKY/WX    TMP DP  RH WIND       PRES   REMARKS
LA CROSSE      CLOUDY    53  43  68 SW12      29.89S
PRAIRIE DU CHI CLOUDY    52  40  64 SW16G25   29.95S
BOSCOBEL       CLOUDY    52  41  66 W14G24    29.94R
LONE ROCK      CLOUDY    51  41  68 W13G22    29.92S
PLATTEVILLE    CLOUDY    50  44  80 W18G24    29.96S
FORT MC COY    CLOUDY    50  44  78 SW13G20   29.89R
CAMP DOUGLAS   CLOUDY    51  43  73 SW17      29.88R
MAUSTON-NEW LI CLOUDY    51  43  73 SW9G18    29.88S
VIROQUA        CLOUDY    47  43  86 MISG      29.91R
WIS DELLS      CLOUDY    49  41  74 SW13      29.90S
$$

...ELSEWHERE IN WISCONSIN...


CITY           SKY/WX    TMP DP  RH WIND       PRES   REMARKS
MILWAUKEE      CLOUDY    57  45  64 SW17G29   29.92S
MADISON        CLOUDY    51  42  71 SW12G20   29.92R
GREEN BAY      CLOUDY    58  48  69 SW13G20   29.83R
EAU CLAIRE     CLOUDY    49  46  90 SW14      29.82R
BLACK RVR FLS  CLOUDY    53  43  69 SW12G17   29.86R
MEDFORD        CLOUDY    48  44  87 SW13      29.81R
WAUSAU         CLOUDY    52  44  74 SW8       29.80S
WIS RAPIDS     CLOUDY    53  42  66 SW14G23   29.86R
MARSHFIELD     CLOUDY    50  43  77 SW13      29.83R
RICE LAKE      CLOUDY    52  48  87 SW7       29.79S
$$

...NORTHEAST IOWA...


CITY           SKY/WX    TMP DP  RH WIND       PRES   REMARKS
WATERLOO       CLOUDY    51  39  63 W18G33    29.98S
DUBUQUE        CLOUDY    48  41  76 W14G22    29.97S
DECORAH          N/A     48  41  76 W12G21    29.92S
MASON CITY     CLOUDY    48  39  71 W18G26    29.98R
CHARLES CITY   CLOUDY    48  43  81 W23G30    29.96S
OELWEIN        CLOUDY    50  41  71 W23       29.97S
$$

...ELSEWHERE IN IOWA...


CITY           SKY/WX    TMP DP  RH WIND       PRES   REMARKS
DES MOINES     PTSUNNY   56  40  55 W23       30.04S
IOWA CITY      CLOUDY    54  40  59 W20G28    30.04R
FORT DODGE     CLOUDY    52  41  66 W16G24    30.02S
MARSHALLTOWN   CLOUDY    50  41  71 W21G30    30.01S
CEDAR RAPIDS   CLOUDY    50  42  74 W20       30.00S
$$

...NORTHERN ILLINOIS...


CITY           SKY/WX    TMP DP  RH WIND       PRES   REMARKS
CHICAGO-OHARE  CLOUDY    58  45  62 W20G25    29.96R
CHICAGO-MIDWAY CLOUDY    59  46  62 W16G25    29.96S
MOLINE         CLOUDY    54  40  59 W14       30.02F
ROCKFORD       CLOUDY    52  42  69 W18G24    29.99S
PEORIA         CLOUDY    55  43  63 W16G24    30.05R
$$

NOTE: "FAIR" INDICATES FEW OR NO CLOUDS BELOW 12,000 FEET WITH NO
SIGNIFICANT WEATHER AND/OR OBSTRUCTIONS TO VISIBILITY. WIND
SPEEDS ARE IN MILES-PER-HOUR.




USA.gov is the U.S. government's official web portal to all federal, state and local government web resources and services.